Temp
83 83 79 80 82 77 75 74 72 75 78 76 75 75 77 79 80 80 80 82 83 84 89 90 89 89 89 88 86 84 83 83 82 82 80 81 81 83 81 77 77 76 76 76
81 78 84 82 79 76 75 74 74 76 78 77 74 74 77 79 79 81 81 82 83 85 87 88 89 90 89 89 86 84 83 82 82 83 82 83 83 83 81 76 80 79 79 76
78 82 83 81 79 77 76 75 74 74 75 76 73 71 73 77 79 81 83 86 87 86 87 88 87 89 90 87 86 84 82 82 82 82 80 79 79 81 78 76 75 79 80 78
80 83 81 79 79 79 75 81 78 74 72 70 73 65 71 75 75 77 82 83 85 87 88 90 91 88 89 89 89 86 83 82 82 81 79 76 73 73 73 75 77 79 79 79
78 79 79 79 80 80 77 81 78 75 74 71 70 69 75 72 73 76 81 83 85 86 87 88 91 92 92 92 90 87 83 79 79 78 77 72 69 70 70 71 72 74 74 76
80 83 84 86 84 82 81 78 75 73 73 68 66 68 75 74 77 79 83 84 85 85 85 87 89 91 91 91 89 86 79 77 78 78 74 71 70 69 68 68 68 69 70 74
75 78 84 85 81 80 79 77 68 65 67 65 66 67 75 80 81 81 82 83 83 84 84 86 85 87 88 87 87 84 79 76 78 77 73 72 72 71 70 68 68 68 69 73
69 67 79 84 83 79 76 78 70 57 63 65 66 67 79 82 82 81 83 83 82 82 84 85 85 85 86 86 86 86 81 78 78 75 73 74 74 70 70 70 69 70 71 73
68 69 79 82 86 84 75 73 79 69 65 65 71 74 81 83 80 83 83 82 82 81 81 81 84 83 83 86 86 86 82 80 78 76 75 72 71 73 72 72 73 73 74 76
76 68 80 82 84 79 80 80 71 71 60 58 67 65 72 80 82 80 82 82 81 79 81 81 82 82 84 85 84 85 84 81 78 77 77 76 75 75 74 74 74 74 76 76
79 74 72 77 78 78 75 75 71 74 71 65 63 70 81 79 81 80 83 82 81 80 80 80 81 82 82 81 78 76 76 76 75 74 75 74 73 74 76 75 74 77 77 76
79 79 70 74 78 79 80 80 79 72 65 66 66 71 84 82 81 80 82 81 82 82 79 82 81 80 74 75 76 76 77 77 76 75 75 74 74 74 74 75 76 76 75 76
76 74 67 70 75 76 77 77 78 75 74 67 67 73 80 78 76 77 80 79 79 79 78 80 80 77 73 77 77 76 75 75 76 76 77 77 76 75 73 74 76 76 76 75
79 75 73 67 72 78 73 74 74 79 71 71 73 78 84 83 76 77 78 78 78 77 77 78 77 72 74 76 74 75 75 76 76 78 77 75 76 76 76 76 75 76 75 75
83 74 73 77 77 78 78 78 73 73 78 73 78 74 82 86 84 78 80 79 77 77 77 77 73 73 74 74 74 75 75 76 77 76 75 74 74 74 74 73 73 73 74 74
76 70 69 72 74 75 75 76 77 76 74 75 77 75 90 85 78 78 78 77 76 77 78 78 77 76 76 75 74 75 75 75 76 75 74 73 72 72 72 71 71 71 71 71
76 72 69 68 71 72 69 78 78 80 80 81 76 85 85 83 78 77 78 80 78 78 79 78 78 78 78 77 77 76 75 75 74 73 72 72 72 71 70 70 70 69 69 69
71 70 69 67 69 61 78 79 81 78 80 83 84 84 82 83 82 80 82 82 81 79 79 78 80 79 79 80 80 78 77 74 73 72 72 72 71 70 69 69 68 67 68 67
75 72 65 66 67 69 76 75 77 77 79 84 82 84 79 77 78 78 81 84 84 82 82 81 81 80 78 78 77 74 74 74 73 72 72 72 71 69 68 67 67 67 67 67
74 72 74 64 64 62 76 74 75 76 74 76 77 78 78 78 79 87 80 84 86 86 85 82 81 80 78 76 77 75 74 73 73 72 71 71 70 69 68 67 66 66 67 67
69 68 68 66 66 71 76 75 76 68 75 76 76 76 78 77 83 80 85 83 86 84 82 81 81 78 77 77 77 75 74 74 72 71 71 70 69 68 67 66 66 66 66 67
68 67 67 63 63 62 76 72 72 75 75 75 76 77 76 79 81 80 82 82 82 81 80 81 78 76 76 76 76 73 71 70 69 69 69 68 68 70 68 66 65 66 67 66
63 69 71 70 72 73 75 77 79 76 74 75 75 79 79 80 82 79 80 81 82 81 79 81 77 70 72 75 75 71 66 67 69 68 67 67 67 67 67 67 66 69 68 69
64 62 63 66 74 72 76 78 77 77 76 77 78 78 79 80 81 79 79 80 80 79 78 76 71 68 68 70 72 69 69 69 69 67 67 67 67 66 67 70 70 70 71 70
65 62 63 66 71 73 75 75 76 76 77 78 78 78 79 80 78 78 77 77 76 73 70 70 68 67 65 68 67 70 69 69 69 68 67 67 68 67 66 66 65 68 66 65
66 66 66 70 70 69 73 74 74 74 74 76 75 76 79 79 77 76 75 74 69 68 68 67 65 65 62 62 65 67 69 69 68 67 67 67 69 69 69 69 66 50 50 49
MSLP
1005.08 1004.69 1004.47 1004.85 1004.99 1005.60 1005.78 1005.75 1005.74 1005.90 1006.16 1006.35 1006.35 1006.38 1006.52 1006.82 1007.16 1007.13 1007.46 1007.66 1007.76 1007.83 1007.88 1008.60 1009.03 1009.53 1009.92 1010.46 1010.94 1011.31 1011.84 1012.36 1013.21 1013.70 1014.15 1014.22 1014.13 1014.47 1014.78 1015.21 1015.44 1015.53 1015.84 1015.84
1005.10 1004.42 1004.51 1004.98 1005.14 1005.41 1005.50 1005.39 1005.33 1005.65 1005.90 1006.18 1006.16 1005.83 1006.18 1006.41 1006.36 1006.42 1006.62 1006.79 1006.96 1007.19 1007.52 1007.85 1008.23 1008.75 1009.24 1009.55 1010.18 1010.89 1011.39 1012.04 1012.61 1013.15 1013.56 1013.83 1014.17 1014.52 1014.86 1015.16 1014.93 1014.98 1015.24 1015.65
1004.48 1004.33 1004.63 1004.79 1004.97 1005.06 1005.09 1005.06 1005.10 1005.39 1005.77 1006.08 1006.07 1005.51 1005.39 1005.76 1006.07 1006.14 1006.17 1006.06 1006.18 1006.36 1006.71 1007.13 1007.62 1007.92 1008.39 1008.90 1009.51 1010.21 1010.80 1011.41 1012.24 1012.68 1013.63 1014.62 1014.93 1015.02 1015.05 1015.10 1015.01 1014.81 1014.59 1014.68
1004.64 1004.43 1004.38 1004.52 1004.57 1004.69 1004.48 1004.71 1005.08 1005.42 1005.59 1005.57 1006.06 1005.25 1004.83 1004.95 1005.13 1005.31 1005.18 1005.21 1005.15 1005.51 1006.17 1006.56 1006.74 1007.42 1007.81 1008.08 1008.92 1009.56 1010.17 1011.26 1011.92 1012.97 1013.77 1014.12 1014.61 1014.76 1014.92 1014.90 1014.87 1014.47 1014.53 1014.36
1004.07 1004.08 1004.15 1004.08 1004.18 1004.55 1004.64 1004.89 1005.21 1005.45 1005.43 1005.67 1005.71 1005.43 1004.16 1004.61 1004.33 1004.07 1004.23 1004.09 1004.53 1004.90 1005.57 1005.84 1006.19 1006.51 1006.87 1007.64 1008.36 1009.15 1010.25 1011.17 1011.89 1012.71 1013.34 1014.09 1014.46 1014.57 1014.06 1013.81 1014.04 1014.41 1014.44 1014.22
1004.17 1004.24 1003.89 1003.58 1004.11 1004.38 1004.89 1004.97 1005.39 1005.71 1005.34 1005.04 1005.74 1005.36 1003.42 1003.47 1003.13 1003.23 1003.48 1003.75 1004.40 1004.91 1005.34 1005.62 1005.99 1006.42 1006.70 1007.50 1008.33 1009.09 1010.11 1010.88 1011.61 1012.32 1013.16 1013.54 1013.01 1012.60 1013.29 1012.98 1013.20 1013.94 1014.63 1014.44
1004.27 1004.00 1003.78 1003.75 1003.85 1004.47 1004.77 1004.67 1004.59 1004.72 1004.76 1004.90 1005.70 1005.01 1002.79 1002.58 1002.90 1003.15 1003.22 1003.52 1004.38 1004.96 1005.34 1005.66 1006.02 1006.30 1006.61 1007.47 1008.22 1008.84 1009.87 1010.86 1011.49 1012.39 1013.03 1013.08 1012.22 1012.00 1012.66 1012.91 1013.47 1013.57 1014.36 1014.27
1003.80 1003.82 1003.55 1003.53 1003.37 1003.59 1004.34 1004.34 1004.31 1004.35 1004.75 1005.10 1005.50 1003.99 1001.99 1002.06 1002.53 1002.79 1003.08 1003.59 1004.32 1004.59 1004.94 1005.36 1005.76 1006.26 1006.73 1007.32 1007.85 1008.44 1009.41 1010.11 1011.03 1011.81 1011.65 1011.43 1010.70 1011.44 1012.34 1013.07 1013.27 1013.80 1014.16 1014.05
1003.73 1003.44 1003.43 1003.36 1003.20 1003.65 1004.17 1004.37 1004.48 1004.51 1005.53 1004.93 1004.13 1003.29 1002.25 1001.47 1001.83 1002.29 1002.66 1003.24 1003.95 1004.65 1005.30 1005.64 1005.90 1006.46 1006.95 1007.21 1007.61 1008.04 1008.85 1009.74 1010.61 1011.14 1010.90 1010.75 1011.06 1011.16 1012.29 1012.98 1013.34 1013.71 1013.87 1013.93
1003.58 1003.38 1003.13 1003.05 1003.44 1004.06 1003.83 1004.14 1004.50 1004.51 1004.29 1003.92 1003.28 1002.92 1001.70 1001.08 1001.11 1001.98 1002.30 1003.03 1003.97 1004.87 1005.43 1005.83 1006.25 1006.70 1007.25 1007.41 1007.86 1008.22 1008.84 1009.32 1010.00 1010.51 1010.55 1011.10 1011.51 1012.01 1012.52 1012.68 1013.03 1013.23 1013.36 1013.40
1003.40 1003.31 1003.37 1003.36 1002.88 1002.84 1003.91 1003.84 1004.35 1004.30 1004.11 1003.24 1002.62 1001.40 1001.12 1000.96 1001.04 1001.78 1002.17 1002.93 1003.91 1004.78 1005.43 1006.05 1006.65 1007.13 1007.60 1008.00 1008.53 1008.99 1009.56 1009.79 1010.23 1010.87 1011.38 1011.63 1012.01 1012.27 1012.44 1012.81 1013.25 1013.39 1013.65 1013.54
1003.31 1002.97 1002.83 1002.78 1003.03 1003.18 1002.90 1002.75 1003.20 1003.22 1003.73 1003.78 1002.94 1000.92 1000.62 1000.91 1001.25 1001.84 1002.38 1002.95 1003.90 1004.70 1005.52 1006.11 1006.76 1007.63 1008.41 1008.65 1009.02 1009.51 1009.86 1010.14 1010.57 1011.08 1011.49 1011.84 1012.18 1012.45 1012.55 1012.78 1013.02 1013.26 1013.43 1013.69
1002.72 1002.60 1002.50 1002.55 1003.04 1003.19 1002.61 1002.68 1002.77 1003.05 1003.20 1002.66 1001.81 1000.18 1000.61 1001.02 1001.52 1002.02 1002.63 1003.31 1003.97 1004.92 1005.76 1006.21 1006.92 1007.80 1008.66 1008.84 1009.54 1010.08 1010.34 1010.45 1010.53 1010.80 1011.33 1011.94 1012.28 1012.59 1012.84 1013.01 1013.24 1013.62 1014.00 1014.16
1001.73 1002.02 1001.77 1001.56 1001.34 1001.66 1002.06 1002.16 1002.51 1002.27 1002.04 1001.78 1000.99 999.88 999.53 1000.20 1001.15 1002.10 1002.84 1003.50 1004.16 1004.94 1005.85 1006.43 1007.21 1008.21 1008.87 1009.39 1010.14 1010.37 1010.60 1010.78 1010.91 1011.19 1011.78 1012.28 1012.68 1012.94 1013.11 1013.49 1013.66 1013.82 1013.92 1013.93
1001.64 1001.48 1001.81 1001.42 1001.59 1001.33 1001.20 1001.26 1001.74 1001.72 1001.16 1000.85 1000.09 1000.13 999.41 999.50 1000.40 1001.35 1002.12 1003.26 1004.09 1004.84 1005.67 1006.44 1007.21 1007.90 1008.62 1009.34 1010.09 1010.60 1010.79 1010.90 1011.29 1011.86 1012.28 1012.57 1012.90 1013.16 1013.49 1013.78 1014.06 1013.99 1013.97 1014.09
1002.06 1001.83 1001.91 1001.48 1001.58 1001.43 1001.16 1001.22 1001.23 1001.35 1001.33 1000.84 1000.31 999.94 999.09 999.66 1000.46 1001.02 1001.62 1002.66 1003.39 1004.40 1005.16 1006.15 1006.91 1007.57 1008.36 1009.25 1009.90 1010.34 1010.89 1011.32 1011.77 1012.37 1012.73 1013.09 1013.66 1013.91 1014.18 1014.38 1014.50 1014.55 1014.70 1014.64
1001.83 1001.86 1002.01 1001.50 1001.64 1001.56 1001.23 1000.51 1000.54 1000.32 1000.38 1000.02 999.57 999.01 999.39 999.62 1000.03 1000.69 1001.61 1002.03 1002.76 1003.58 1004.34 1005.52 1006.43 1007.09 1007.93 1008.80 1009.54 1010.21 1010.91 1011.72 1012.28 1012.74 1013.19 1013.68 1014.22 1014.38 1014.35 1014.54 1014.74 1014.90 1015.10 1015.23
1002.03 1001.95 1002.02 1001.95 1001.91 1001.14 1000.37 1000.72 1000.43 1000.31 1000.05 999.98 999.44 999.12 999.54 999.67 999.92 1000.32 1000.88 1001.31 1001.99 1002.90 1003.73 1004.77 1005.72 1006.81 1007.86 1008.72 1009.32 1010.30 1010.91 1011.70 1012.43 1013.05 1013.62 1014.15 1014.52 1014.68 1014.55 1014.96 1015.09 1015.15 1015.46 1015.53
1002.23 1001.99 1002.14 1001.97 1001.51 1001.26 1000.69 1000.98 1000.76 1000.33 999.83 999.72 999.91 999.58 1000.00 1000.13 1000.12 999.92 1000.24 1000.52 1000.98 1002.02 1003.09 1004.30 1005.47 1006.44 1007.59 1008.59 1009.37 1010.17 1010.87 1011.76 1012.37 1012.91 1013.73 1014.10 1014.14 1014.20 1014.50 1015.15 1015.30 1015.49 1015.65 1015.73
1002.54 1002.34 1001.75 1002.37 1001.41 1000.72 1000.49 1001.24 1001.60 1001.35 1000.50 1000.50 1000.52 1000.31 1000.33 1000.27 999.62 998.51 999.32 1000.16 1000.96 1001.96 1003.04 1004.21 1005.37 1006.42 1007.57 1008.44 1009.08 1009.90 1010.67 1011.36 1012.03 1012.84 1013.44 1013.92 1014.08 1014.46 1014.94 1015.14 1015.61 1015.86 1015.92 1016.17
1002.67 1002.67 1002.26 1002.06 1001.62 1001.02 1000.97 1001.52 1002.05 1001.93 1001.28 1001.03 1001.04 1000.76 1000.51 1000.08 999.73 999.94 999.93 1000.39 1000.83 1001.93 1003.09 1004.27 1005.25 1006.15 1007.30 1008.23 1008.97 1009.76 1010.53 1011.24 1012.16 1012.93 1013.57 1013.89 1014.37 1015.09 1015.37 1015.45 1015.78 1016.02 1016.11 1016.24
1003.19 1003.06 1002.92 1002.81 1002.00 1001.40 1001.54 1002.30 1001.90 1001.39 1001.20 1001.32 1001.19 1000.84 1000.33 1000.12 1000.05 1000.04 1000.17 1000.42 1000.85 1001.98 1003.34 1004.35 1005.24 1006.24 1007.36 1008.06 1008.58 1009.61 1010.43 1011.64 1012.46 1013.01 1013.58 1014.12 1014.83 1014.96 1015.12 1015.61 1015.89 1015.99 1016.07 1015.93
1004.51 1003.83 1003.29 1002.94 1001.82 1001.51 1001.76 1001.56 1001.56 1001.77 1001.80 1001.80 1001.70 1001.24 1000.81 1000.32 1000.05 1000.40 1000.85 1001.15 1001.15 1002.01 1003.26 1004.37 1005.34 1006.60 1007.58 1008.32 1008.92 1009.85 1010.84 1011.61 1012.36 1012.95 1013.72 1014.41 1014.84 1014.94 1015.11 1015.29 1015.29 1015.04 1015.83 1015.84
1004.69 1004.93 1004.35 1003.49 1001.83 1001.68 1001.64 1001.87 1002.01 1002.14 1002.19 1002.08 1001.92 1001.63 1001.22 1000.74 1000.69 1000.79 1001.40 1001.87 1002.23 1002.77 1003.71 1004.88 1005.74 1006.68 1007.94 1008.71 1009.10 1010.06 1011.09 1011.73 1012.45 1013.08 1013.59 1014.10 1014.66 1014.83 1015.07 1014.94 1014.58 1014.90 1015.24 1015.59
1005.46 1005.23 1004.50 1003.45 1002.26 1001.99 1001.58 1001.99 1002.29 1002.33 1002.37 1002.09 1001.86 1001.66 1001.48 1001.13 1001.13 1001.49 1001.78 1002.24 1002.85 1003.75 1004.62 1005.07 1005.88 1007.10 1008.30 1009.64 1010.27 1010.67 1011.35 1011.89 1012.52 1013.26 1013.63 1014.35 1014.74 1014.64 1015.01 1014.97 1015.41 1015.38 1015.79 1015.99
1004.88 1004.16 1003.93 1002.83 1002.99 1003.04 1002.58 1002.61 1002.69 1002.44 1002.21 1002.11 1002.04 1001.79 1001.67 1001.78 1001.72 1002.03 1002.78 1003.28 1003.97 1004.79 1005.77 1006.09 1006.75 1007.86 1008.82 1008.94 1011.49 1011.66 1011.96 1012.35 1012.76 1013.15 1013.80 1014.49 1014.42 1014.41 1014.42 1014.65 1015.31 1016.06 1015.90 1016.26
Wind_Speed
1 6 7 4 6 3 0 4 2 1 4 3 6 7 10 14 14 14 13 14 15 18 20 15 16 16 15 15 15 16 15 14 11 9 8 8 9 8 8 6 8 10 9 8
5 9 4 2 2 1 3 4 4 2 4 3 3 10 8 14 18 17 17 17 19 18 17 16 17 16 16 16 16 15 15 14 13 9 7 5 2 3 6 3 8 9 9 7
10 5 4 3 1 3 2 5 3 4 5 2 6 5 7 11 15 14 18 18 18 19 19 19 17 17 16 16 16 15 15 14 12 10 4 4 4 3 4 4 4 7 8 10
8 4 5 2 6 3 6 7 2 2 3 3 4 5 4 9 14 18 17 18 20 19 18 16 17 16 16 17 14 14 13 11 10 9 7 10 6 3 1 2 5 7 9 8
9 9 8 8 4 4 3 4 1 2 1 4 2 5 2 0 8 16 19 20 19 18 16 17 18 18 17 14 13 9 9 11 11 12 12 9 6 4 5 4 1 5 6 5
3 1 4 11 2 4 8 5 3 0 3 4 4 4 3 5 5 4 9 14 14 13 14 14 12 12 13 9 7 8 12 12 14 15 16 11 9 7 4 4 4 2 4 4
2 4 1 3 4 5 5 5 3 3 2 3 3 5 9 8 7 6 8 5 4 6 10 9 9 9 9 5 7 9 13 12 13 16 14 9 10 6 6 6 2 3 3 3
11 12 8 6 8 3 6 5 4 4 2 4 1 5 4 2 1 4 6 3 1 2 4 5 5 5 5 7 9 11 14 14 16 17 15 11 11 5 4 3 1 1 4 4
8 12 2 6 5 5 5 6 3 4 1 6 2 5 13 9 7 10 8 4 1 5 7 8 8 9 9 11 10 11 13 15 17 18 14 11 8 3 2 3 2 1 3 4
7 6 8 5 6 5 5 9 4 1 4 6 4 6 8 11 8 4 7 4 6 9 8 9 10 11 8 9 8 10 12 16 19 19 14 8 5 5 2 4 2 4 3 2
9 4 4 4 11 12 6 5 3 1 3 6 7 7 6 10 8 6 7 2 7 9 9 10 10 10 10 10 11 12 11 13 13 11 9 6 5 4 4 1 2 3 4 4
8 8 7 9 3 3 3 6 9 6 5 2 4 10 2 8 6 6 8 6 6 6 9 11 11 10 10 12 12 12 12 13 13 12 11 8 8 8 8 7 6 5 5 5
11 8 7 6 4 2 6 5 4 4 2 7 6 9 4 3 3 7 9 7 7 7 9 10 12 12 12 14 14 13 13 14 13 13 13 12 11 10 9 8 7 6 5 5
15 6 13 11 10 6 7 7 9 10 5 4 8 13 16 9 8 8 10 9 8 9 9 11 12 12 13 13 12 13 14 14 15 14 14 13 12 11 10 9 8 7 7 7
10 11 10 12 7 5 4 9 12 12 10 7 8 7 15 14 9 14 15 12 11 12 12 12 13 14 15 15 13 13 13 13 14 13 12 11 10 10 9 8 7 7 7 7
3 4 6 6 7 6 5 6 8 11 5 12 13 15 13 7 6 10 18 16 15 14 14 14 16 17 16 16 15 15 13 13 13 12 12 11 9 9 8 7 6 6 6 6
5 6 5 3 5 9 6 12 12 9 8 11 8 9 4 6 7 8 14 16 16 17 17 16 16 16 16 16 15 15 15 13 12 12 11 10 9 8 7 7 6 6 5 5
6 5 2 4 6 7 3 2 5 8 12 13 13 12 9 11 5 5 14 19 16 17 18 17 15 15 14 14 15 15 15 14 13 12 11 10 8 7 8 6 6 6 4 4
2 4 3 3 5 3 4 4 4 3 7 4 13 12 8 4 4 6 13 18 18 19 17 16 16 16 15 16 15 15 14 13 12 11 10 9 9 8 8 6 5 5 3 4
6 4 3 3 4 8 2 4 2 3 6 5 4 9 8 6 5 5 18 16 13 13 14 16 17 16 15 15 15 15 14 13 12 11 9 7 7 8 7 6 5 4 4 3
2 2 3 4 4 4 4 4 6 6 2 5 5 9 8 10 6 10 13 13 13 15 16 16 16 15 15 16 15 14 13 12 11 10 9 8 8 7 6 7 5 4 4 2
3 4 2 2 3 6 8 6 8 3 3 6 8 9 10 13 11 7 13 15 16 16 15 16 15 14 14 15 14 13 13 12 11 10 9 8 7 5 6 6 4 3 2 2
4 3 2 6 2 1 6 6 3 3 5 7 8 11 9 11 9 3 9 13 15 17 14 14 15 14 12 12 11 13 12 13 12 11 10 8 7 6 5 4 3 3 1 3
3 2 3 3 4 9 10 10 8 5 5 9 9 10 9 9 6 5 7 8 10 12 14 13 16 15 12 11 13 14 14 13 12 11 9 7 6 4 3 3 3 2 2 2
2 4 2 6 11 10 12 6 6 5 6 8 7 5 8 5 4 5 8 11 10 10 11 14 13 13 12 9 10 13 13 12 11 9 8 6 4 4 5 5 5 4 3 3
6 5 5 4 4 3 4 4 1 4 5 6 4 5 2 5 5 6 5 6 8 9 9 11 14 16 13 17 8 9 11 10 10 9 6 5 5 5 4 4 5 6 5 2
Wind_Direction
32 221 238 266 249 31 42 294 271 210 180 220 250 263 212 202 215 209 208 209 211 221 229 222 222 226 222 223 224 219 213 211 196 202 208 228 232 236 245 232 233 234 234 232
180 219 212 242 43 232 220 242 230 209 171 237 283 265 225 210 220 223 215 215 217 221 228 231 232 228 224 222 223 220 218 206 201 202 208 221 245 266 270 277 262 244 253 236
210 192 144 189 219 250 217 243 225 323 156 155 286 262 229 217 228 235 238 237 232 224 223 219 225 228 230 225 218 215 212 204 200 197 169 76 54 13 16 356 289 269 248 237
223 179 230 217 273 243 274 229 233 249 250 328 329 302 246 215 228 229 235 231 236 232 229 230 220 214 221 226 221 215 205 188 189 166 133 109 109 122 159 338 318 311 298 282
186 174 196 240 290 195 334 114 145 237 240 282 59 266 272 94 246 242 233 235 236 243 241 238 232 231 225 224 219 208 171 157 150 143 135 118 122 195 217 176 83 354 322 299
166 254 199 230 113 179 142 116 97 120 294 255 31 303 249 207 227 207 229 239 235 237 243 249 257 257 248 226 202 165 153 152 149 142 133 146 156 211 228 165 103 88 325 308
154 195 180 211 186 128 207 228 275 236 213 327 14 249 270 259 251 252 279 259 217 227 228 236 244 244 240 207 161 156 147 151 153 141 130 164 209 219 263 117 171 161 262 284
204 208 192 165 221 238 197 236 255 290 312 342 121 249 280 267 217 221 243 244 316 185 179 175 184 173 158 139 160 157 160 162 153 153 169 195 201 150 210 207 176 357 259 288
189 223 181 214 205 205 155 210 340 186 161 269 316 269 271 273 253 241 250 260 52 97 115 122 112 108 115 115 142 171 161 148 155 168 185 202 236 112 213 132 33 200 278 300
189 205 204 159 140 74 244 135 176 207 249 263 251 276 269 296 297 205 239 226 129 106 119 113 103 112 115 114 108 123 142 158 167 174 191 208 228 263 247 124 253 259 206 94
170 255 134 170 202 192 159 182 82 166 260 274 282 277 217 255 284 214 216 181 144 139 134 127 115 114 118 108 107 112 124 137 148 164 179 206 196 196 159 112 161 111 100 83
189 209 227 201 93 349 248 225 192 241 199 253 312 274 159 265 283 221 195 154 145 141 154 156 138 126 121 119 119 130 129 125 128 130 123 111 110 121 128 135 114 102 105 106
172 213 197 200 170 172 223 180 182 136 155 217 263 271 105 297 253 219 179 174 153 137 146 149 147 138 136 129 132 136 136 131 127 125 126 129 131 128 128 122 116 112 116 115
164 165 212 226 214 169 185 191 197 212 196 177 240 278 287 261 230 192 207 181 163 151 153 144 138 139 138 132 137 137 133 133 135 135 137 136 138 132 120 117 120 121 114 102
195 206 198 220 226 204 196 190 184 206 220 225 308 245 279 283 268 198 189 180 170 160 162 159 150 147 140 138 142 140 138 137 135 133 132 120 112 111 115 112 103 90 92 97
195 168 190 223 202 205 231 211 200 231 252 255 267 277 273 294 273 191 186 179 177 170 169 164 158 150 146 149 151 146 141 135 130 130 126 121 117 118 116 111 105 97 94 86
161 154 169 226 167 163 216 227 214 225 213 233 224 247 270 262 251 221 207 188 174 176 170 165 163 156 156 157 151 144 137 136 137 134 127 126 142 139 124 116 107 96 84 92
145 131 156 115 175 197 107 223 201 222 251 248 257 255 261 277 286 215 197 192 186 175 167 166 164 157 157 152 146 137 139 141 139 137 143 153 149 133 113 105 100 96 93 80
316 140 118 193 202 334 205 175 211 226 279 266 258 286 300 267 215 230 202 196 189 177 170 165 161 155 153 151 143 139 139 142 143 144 153 155 148 128 120 122 109 94 106 83
98 66 214 161 213 219 173 138 115 215 251 81 345 303 290 199 226 227 184 190 181 169 160 155 151 144 146 148 146 145 148 148 143 142 144 144 120 114 126 121 111 104 103 103
101 63 222 163 239 269 183 153 148 207 293 333 308 294 255 220 304 318 176 176 166 159 156 150 151 146 148 150 149 149 148 138 129 129 127 116 113 126 126 113 118 127 121 132
216 189 183 146 217 243 144 139 212 30 320 309 309 298 263 240 286 330 177 170 160 159 150 154 145 143 151 153 151 146 136 134 130 125 121 118 143 142 118 123 129 119 125 110
230 270 242 227 249 94 195 257 226 317 304 321 322 316 287 252 241 165 196 186 167 160 157 157 142 139 150 155 147 142 137 136 134 130 127 135 131 119 130 150 136 144 243 315
203 154 244 283 211 251 254 248 272 292 297 314 311 304 290 273 249 168 166 174 165 155 151 150 147 145 141 144 145 136 141 137 139 135 135 132 142 136 145 152 112 68 34 353
44 153 280 266 274 282 271 266 276 274 293 316 329 293 295 258 198 190 168 166 157 147 146 154 148 134 118 121 121 130 138 141 135 135 125 124 148 140 129 78 39 42 56 352
192 179 205 263 1 295 338 354 312 321 321 310 330 331 254 283 192 163 164 151 145 135 148 137 121 120 122 109 134 139 138 139 139 129 127 162 152 144 118 102 116 84 68 40